Total_Precipitation_Accumulation
2.44 2.42 2.37 2.41 2.32 2.45 2.53 2.51 2.22 2.04 1.94 1.79 1.63 1.64 1.73 1.73 1.79 1.86 2.05 2.12 2.02 2.23 2.71 3.10 3.13 3.15 3.11 3.02 2.94 2.91 2.80 2.73 2.58 2.35 2.01 1.80 1.73 1.61 1.57 1.58 1.64 1.66 1.64
2.83 2.79 2.88 2.87 2.61 2.59 2.70 2.81 2.66 2.44 2.14 1.96 1.79 1.75 1.76 1.74 1.80 1.94 2.10 2.21 2.17 2.14 2.54 3.04 3.32 3.50 3.53 3.52 3.36 3.09 2.89 2.77 2.71 2.59 2.38 2.09 1.92 1.80 1.75 1.68 1.66 1.61 1.56
3.18 3.15 3.27 3.26 2.91 2.81 2.93 3.04 3.02 2.89 2.46 2.17 2.05 2.03 1.98 2.01 1.94 2.00 2.22 2.32 2.27 2.26 2.46 2.64 2.90 3.15 3.35 3.51 3.57 3.39 3.16 2.90 2.75 2.68 2.65 2.50 2.26 2.05 1.92 1.82 1.77 1.69 1.59
3.22 3.32 3.22 3.06 2.99 3.05 3.29 3.47 3.41 3.31 3.03 2.75 2.52 2.24 2.03 2.02 2.00 2.16 2.24 2.31 2.58 2.52 2.46 2.31 2.42 2.68 2.98 3.31 3.58 3.63 3.52 3.30 2.99 2.78 2.72 2.62 2.40 2.16 1.98 1.87 1.85 1.78 1.70
3.32 3.49 3.51 3.43 3.35 3.39 3.46 3.34 3.49 3.33 3.38 3.16 2.68 2.44 2.22 2.12 2.15 2.21 2.30 2.31 2.45 2.59 2.55 2.34 2.29 2.45 2.62 2.97 3.26 3.53 3.66 3.57 3.31 3.03 2.86 2.75 2.57 2.34 2.16 2.05 1.94 1.86 1.79
3.64 3.76 3.71 3.75 3.81 3.88 3.71 3.60 3.62 3.39 3.23 3.14 2.75 2.54 2.38 2.21 2.17 2.15 2.10 2.15 2.26 2.23 2.31 2.31 2.35 2.23 2.34 2.53 2.82 3.26 3.69 3.81 3.70 3.43 3.22 3.09 2.84 2.53 2.26 2.15 2.08 2.02 1.94
4.26 4.27 4.28 4.27 4.11 4.01 3.87 3.69 3.57 3.44 3.19 3.00 2.93 2.60 2.21 1.93 1.84 1.80 1.84 1.92 1.92 1.93 2.05 2.24 2.36 2.31 2.16 2.17 2.37 2.90 3.54 3.83 3.85 3.68 3.48 3.36 3.05 2.69 2.42 2.22 2.10 2.06 2.00
4.97 4.75 4.72 4.49 4.19 4.02 3.87 3.66 3.50 3.32 3.03 2.90 2.85 2.83 2.38 2.01 1.66 1.47 1.56 1.57 1.63 1.80 1.90 1.87 1.95 2.00 1.93 1.96 1.92 2.25 2.61 2.94 3.27 3.50 3.56 3.42 3.18 2.91 2.66 2.49 2.37 2.33 2.26
5.01 4.76 4.51 4.36 4.17 4.00 3.82 3.69 3.55 3.40 3.13 2.92 2.81 2.99 2.80 2.41 1.95 1.70 1.56 1.55 1.64 1.73 1.72 1.68 1.69 1.70 1.73 1.83 1.86 1.96 2.16 2.35 2.67 2.98 3.23 3.24 3.09 2.93 2.80 2.72 2.66 2.67 2.67
4.63 4.23 4.03 4.05 3.91 3.71 3.49 3.22 3.09 3.04 2.95 2.81 2.73 2.63 2.62 2.54 2.35 2.05 1.81 1.80 1.85 1.82 1.74 1.70 1.77 1.86 1.86 1.94 1.92 1.78 1.78 1.85 2.11 2.39 2.70 2.83 2.77 2.72 2.73 2.85 2.96 3.06 3.06
4.07 3.78 3.60 3.66 3.53 3.30 3.08 2.82 2.61 2.50 2.46 2.50 2.53 2.49 2.43 2.38 2.22 2.10 1.93 1.84 1.82 1.79 1.73 1.71 1.76 1.85 1.86 1.82 1.77 1.71 1.72 1.71 1.85 2.02 2.22 2.49 2.63 2.68 2.75 2.87 3.01 3.10 3.16
3.44 3.12 2.85 2.76 2.68 2.51 2.40 2.35 2.26 2.23 2.21 2.26 2.28 2.21 2.19 2.20 2.15 2.15 2.05 1.86 1.83 1.89 1.79 1.69 1.61 1.58 1.62 1.68 1.68 1.81 1.74 1.71 1.75 1.82 1.81 1.86 2.10 2.33 2.53 2.66 2.72 2.90 3.08
2.76 2.43 2.22 2.11 2.07 2.04 2.01 2.01 2.00 1.99 1.94 1.98 1.98 1.96 1.95 1.91 1.93 2.08 2.20 2.11 1.98 1.85 1.82 1.74 1.57 1.54 1.51 1.55 1.73 1.82 1.70 1.62 1.65 1.66 1.56 1.51 1.62 1.80 1.92 2.08 2.27 2.48 2.72
2.19 2.05 1.90 1.78 1.74 1.78 1.79 1.86 1.81 1.73 1.67 1.67 1.63 1.67 1.71 1.66 1.76 1.96 2.11 2.29 2.27 2.00 1.79 1.69 1.60 1.53 1.52 1.53 1.72 1.74 1.55 1.47 1.42 1.46 1.47 1.42 1.38 1.42 1.49 1.56 1.68 1.82 2.04
1.73 1.67 1.64 1.62 1.54 1.49 1.45 1.44 1.42 1.41 1.46 1.47 1.44 1.43 1.44 1.44 1.55 1.70 1.85 2.11 2.33 2.22 1.94 1.68 1.67 1.63 1.58 1.62 1.81 1.57 1.44 1.45 1.33 1.23 1.23 1.21 1.22 1.25 1.27 1.24 1.26 1.33 1.44
1.36 1.36 1.31 1.30 1.33 1.34 1.25 1.18 1.16 1.18 1.22 1.29 1.34 1.30 1.29 1.28 1.34 1.39 1.50 1.68 1.96 2.13 1.97 1.61 1.57 1.54 1.53 1.46 1.66 1.49 1.47 1.48 1.26 1.10 1.03 1.02 1.04 1.09 1.10 1.07 1.09 1.12 1.18
1.19 1.15 1.15 1.12 1.09 1.06 1.04 1.08 1.07 1.08 1.16 1.19 1.20 1.22 1.24 1.28 1.33 1.29 1.33 1.45 1.63 1.84 1.95 1.75 1.59 1.53 1.52 1.58 1.57 1.45 1.36 1.27 1.17 1.13 0.98 0.92 0.92 0.99 1.00 0.98 1.01 1.03 1.05
1.11 1.10 1.10 1.03 0.91 0.87 0.94 1.02 1.03 1.01 1.11 1.12 1.12 1.20 1.21 1.24 1.29 1.29 1.34 1.40 1.53 1.73 1.87 1.91 1.73 1.58 1.53 1.54 1.56 1.50 1.24 1.11 1.10 1.18 1.02 0.91 0.85 0.83 0.91 0.89 0.89 0.95 1.02
1.07 1.03 0.97 0.93 0.89 0.83 0.85 0.85 0.87 0.88 0.95 1.03 1.07 1.14 1.18 1.23 1.23 1.25 1.31 1.36 1.49 1.61 1.80 1.89 1.79 1.65 1.57 1.51 1.60 1.51 1.38 1.42 1.18 1.12 1.04 0.96 0.89 0.87 1.07 1.09 0.88 0.87 0.91
0.95 0.91 0.83 0.81 0.84 0.82 0.74 0.70 0.72 0.77 0.85 0.89 0.91 1.02 1.09 1.13 1.14 1.22 1.27 1.34 1.43 1.60 1.75 1.82 1.72 1.61 1.55 1.56 1.65 1.67 1.59 1.51 1.37 1.09 1.09 1.02 0.99 1.00 1.31 1.80 1.29 0.99 0.94
0.84 0.83 0.77 0.71 0.75 0.74 0.67 0.68 0.69 0.70 0.76 0.77 0.80 0.88 0.95 0.97 0.97 1.05 1.07 1.19 1.36 1.54 1.64 1.73 1.69 1.63 1.57 1.68 1.71 1.63 1.57 1.55 1.42 1.26 1.25 1.13 1.24 1.51 2.01 2.63 2.14 1.50 1.26
0.91 0.86 0.80 0.74 0.73 0.67 0.67 0.63 0.61 0.64 0.72 0.79 0.86 0.87 0.82 0.83 0.81 0.78 0.86 0.96 1.14 1.37 1.58 1.68 1.65 1.65 1.61 1.66 1.77 1.73 1.68 1.70 1.65 1.38 1.32 1.28 1.47 2.21 2.83 3.11 2.65 1.83 1.51
1.03 0.92 0.82 0.79 0.75 0.67 0.59 0.50 0.50 0.57 0.74 0.86 0.92 0.89 0.76 0.72 0.83 0.85 0.87 0.89 1.01 1.14 1.38 1.63 1.70 1.61 1.62 1.68 1.83 1.88 1.80 1.77 1.71 1.49 1.51 1.52 1.71 2.50 2.73 2.85 2.66 1.89 1.58
0.97 0.91 0.84 0.79 0.73 0.55 0.49 0.46 0.50 0.56 0.68 0.72 0.75 0.81 0.89 0.90 0.84 0.88 0.88 0.99 1.08 1.18 1.25 1.38 1.59 1.54 1.50 1.61 1.74 1.78 1.73 1.67 1.61 1.48 1.49 1.66 1.85 2.36 2.34 2.44 2.47 1.94 1.63
0.95 0.85 0.78 0.75 0.71 0.58 0.53 0.51 0.54 0.60 0.65 0.61 0.58 0.63 0.70 0.75 0.75 0.82 0.94 1.11 1.17 1.28 1.27 1.43 1.47 1.40 1.41 1.46 1.43 1.48 1.73 1.87 1.77 1.50 1.38 1.54 1.75 2.04 2.09 2.16 2.08 1.89 1.69
0.91 0.75 0.67 0.67 0.65 0.62 0.57 0.49 0.48 0.51 0.60 0.58 0.61 0.68 0.66 0.60 0.66 0.77 0.97 1.20 1.34 1.38 1.46 1.61 1.59 1.56 1.47 1.44 1.36 1.39 1.69 1.91 1.86 1.62 1.35 1.40 1.55 1.73 1.98 1.95 1.78 1.66 1.70